Probability
0 0 0 0 0 0 0 0 0 0 0 0 0 0 0 0 0 0 0 0 0 0 0 0 0 0 0 0 0 0 0 0 0 0 0 0 0 0 0 0 0 0 0 0
0 0 0 0 0 0 0 0 0 0 0 0 0 0 0 0 0 0 0 0 0 0 0 0 0 0 0 0 0 0 0 0 0 0 0 0 0 0 0 0 0 0 0 0
0 0 0 0 0 0 0 0 0 0 0 0 0 0 0 0 0 0 0 0 0 0 0 0 0 0 0 0 0 0 0 0 0 0 0 0 0 0 0 0 0 0 0 0
0 0 0 0 0 0 0 0 0 0 0 0 0 0 0 0 0 0 0 0 0 0 0 0 0 0 0 0 0 0 0 0 0 0 3 0 0 0 0 0 0 0 0 0
0 0 0 0 0 0 0 0 0 0 0 0 0 0 0 0 0 0 0 0 0 0 0 0 0 0 0 0 0 0 0 0 0 0 3 3 0 0 0 0 0 0 0 0
0 0 0 0 0 0 0 0 0 0 0 0 0 0 0 0 0 0 0 0 0 0 0 0 0 0 0 0 0 0 0 0 0 0 0 3 0 0 0 0 0 0 0 0
0 0 0 0 0 0 0 0 0 0 0 0 0 0 0 0 0 0 0 0 0 0 0 0 0 0 0 0 0 0 0 0 0 3 3 3 0 0 0 0 0 0 0 0
0 0 0 0 0 0 0 0 0 0 0 0 0 0 0 0 0 0 0 0 0 0 0 0 0 0 0 0 0 0 0 0 0 0 0 0 0 0 0 0 0 0 0 0
0 0 0 0 0 0 0 0 0 0 0 0 0 0 0 0 0 0 0 0 0 0 0 0 0 0 0 0 0 0 0 0 0 0 0 0 0 0 0 0 0 0 0 0
0 0 0 0 0 0 0 0 0 0 0 0 0 0 0 0 0 0 0 0 0 0 0 0 0 0 0 0 0 0 0 0 0 0 0 0 0 0 0 0 0 0 0 0
0 0 0 0 0 0 0 0 0 0 0 0 0 0 0 0 0 0 0 0 0 0 0 0 0 0 0 0 0 0 0 0 0 0 0 0 0 0 0 0 0 0 0 0
0 0 0 0 0 0 0 0 0 0 0 0 0 0 0 0 0 0 0 0 0 0 0 0 0 0 0 0 0 0 0 0 0 0 0 0 0 0 0 0 0 0 0 0
0 0 0 0 0 0 0 0 0 0 0 0 0 0 0 0 0 0 0 0 0 0 0 0 0 0 0 0 0 0 0 0 0 0 0 0 0 0 0 0 0 0 0 0
0 0 0 0 0 0 0 0 0 0 0 0 0 0 0 0 0 0 0 0 0 0 0 0 0 0 0 0 0 0 0 0 0 0 0 0 0 0 0 0 0 0 0 0
0 0 0 0 0 0 0 0 0 0 0 0 0 0 0 0 0 0 0 0 0 0 0 0 0 0 0 0 0 0 0 0 0 0 0 0 0 0 0 0 0 0 0 0
0 0 0 0 0 0 0 0 0 0 0 0 0 0 0 0 0 0 0 0 0 0 0 0 0 0 0 0 0 0 0 0 0 0 0 0 0 0 0 0 0 0 0 0
0 0 0 0 0 0 0 0 0 0 0 0 0 0 0 0 0 0 0 0 0 0 0 0 0 0 0 0 0 0 0 0 0 0 0 0 0 0 0 0 0 0 0 0
0 0 0 0 0 0 0 0 0 0 0 0 0 0 0 0 0 0 0 0 0 0 0 0 0 0 0 0 0 0 0 0 0 0 0 0 0 0 0 0 0 0 0 0
0 0 0 0 0 0 0 0 0 0 0 0 0 0 0 0 0 0 0 0 0 0 0 0 0 0 0 0 0 0 0 0 0 0 0 0 0 0 0 0 0 0 0 0
0 0 0 0 0 0 0 0 0 0 0 0 0 0 0 0 0 0 0 0 0 0 0 0 0 0 0 0 0 0 0 0 0 0 0 0 0 0 0 0 0 0 0 0
0 0 0 0 0 0 0 0 0 0 0 0 0 0 0 0 0 0 0 0 0 0 0 0 0 0 0 0 0 0 0 0 0 0 0 0 0 0 0 0 0 0 0 0
0 0 0 0 0 0 0 0 0 0 0 0 0 0 0 0 0 0 0 0 0 0 0 0 0 0 0 0 0 0 0 0 0 0 0 0 0 0 0 0 0 0 0 0
0 0 0 0 0 0 0 0 0 0 0 0 0 0 0 0 0 0 0 0 0 0 0 0 0 0 0 0 0 0 0 0 0 0 0 0 0 0 0 0 0 0 0 0
0 0 0 0 0 0 0 0 0 0 0 0 0 0 0 0 0 0 0 0 0 0 0 0 0 0 0 0 0 0 0 0 0 0 0 0 0 0 0 0 0 0 0 0
0 0 0 0 0 0 0 0 0 0 0 0 0 0 0 0 0 0 0 0 0 0 0 0 0 0 0 0 0 0 0 0 0 0 0 0 0 0 0 0 0 0 0 0
0 0 0 0 0 0 0 0 0 0 0 0 0 0 0 0 0 0 0 0 0 0 0 0 0 0 0 0 0 0 0 0 0 0 0 0 0 0 0 0 0 0 0 0
Height
5651 5655 5657 5659 5662 5664 5666 5668 5670 5671 5671 5673 5674 5675 5676 5677 5678 5680 5682 5683 5685 5687 5689 5691 5694 5697 5700 5704 5708 5713 5717 5722 5726 5730 5735 5739 5743 5747 5751 5755 5759 5762 5765 5767
5651 5653 5655 5656 5659 5661 5663 5665 5666 5667 5667 5668 5669 5670 5671 5671 5672 5674 5675 5676 5677 5679 5681 5683 5686 5689 5692 5695 5699 5703 5707 5712 5716 5720 5725 5729 5733 5737 5742 5746 5749 5752 5755 5758
5649 5652 5653 5655 5657 5659 5661 5662 5663 5664 5664 5664 5665 5666 5666 5666 5666 5667 5668 5669 5670 5672 5674 5676 5679 5682 5685 5688 5692 5696 5699 5703 5707 5711 5716 5720 5724 5728 5733 5736 5740 5743 5746 5749
5648 5650 5652 5654 5656 5657 5659 5660 5660 5661 5661 5661 5662 5662 5662 5662 5662 5662 5663 5664 5665 5666 5668 5670 5673 5675 5678 5682 5685 5689 5692 5695 5699 5702 5707 5711 5716 5720 5724 5727 5731 5734 5737 5740
5649 5650 5652 5654 5655 5656 5657 5658 5658 5659 5659 5659 5659 5659 5660 5659 5659 5659 5659 5660 5661 5662 5663 5665 5667 5670 5673 5676 5680 5682 5685 5688 5691 5695 5699 5703 5707 5711 5714 5718 5721 5724 5727 5730
5650 5651 5652 5653 5654 5655 5656 5657 5657 5657 5658 5658 5658 5657 5657 5656 5656 5656 5656 5656 5657 5657 5659 5661 5663 5665 5668 5671 5674 5676 5679 5682 5685 5688 5692 5695 5699 5702 5706 5709 5712 5716 5718 5721
5651 5652 5653 5654 5655 5655 5656 5657 5658 5657 5657 5657 5656 5656 5656 5655 5654 5654 5654 5654 5654 5655 5656 5657 5660 5662 5664 5666 5669 5671 5674 5676 5679 5682 5685 5688 5691 5694 5698 5701 5704 5706 5709 5711
5652 5653 5654 5654 5655 5656 5656 5657 5658 5658 5657 5657 5656 5655 5656 5654 5653 5653 5653 5652 5652 5653 5654 5655 5657 5658 5660 5662 5664 5666 5668 5671 5673 5676 5678 5681 5684 5687 5690 5693 5695 5697 5700 5702
5653 5655 5655 5654 5655 5656 5656 5656 5657 5658 5657 5656 5656 5655 5654 5653 5653 5652 5651 5651 5651 5652 5652 5653 5654 5656 5657 5659 5661 5662 5664 5666 5668 5670 5672 5675 5678 5681 5683 5685 5687 5689 5691 5693
5655 5656 5656 5656 5656 5656 5657 5657 5657 5657 5657 5656 5656 5655 5654 5653 5652 5651 5651 5650 5650 5651 5651 5652 5653 5654 5655 5657 5657 5658 5659 5661 5663 5666 5668 5670 5673 5675 5677 5679 5680 5681 5682 5683
5657 5658 5658 5657 5657 5656 5657 5658 5657 5657 5657 5656 5655 5657 5654 5652 5651 5651 5650 5650 5650 5650 5650 5651 5652 5653 5654 5655 5656 5656 5657 5659 5660 5663 5665 5667 5668 5670 5671 5672 5673 5674 5675 5676
5659 5659 5659 5659 5658 5657 5657 5657 5657 5657 5657 5656 5655 5658 5653 5652 5651 5650 5650 5650 5650 5650 5650 5651 5651 5652 5653 5654 5655 5655 5656 5657 5659 5660 5662 5663 5664 5666 5667 5667 5667 5668 5668 5668
5660 5661 5661 5660 5661 5659 5658 5657 5657 5657 5656 5655 5655 5657 5653 5651 5651 5650 5650 5650 5650 5650 5650 5650 5651 5651 5652 5653 5654 5654 5655 5655 5656 5657 5658 5660 5661 5661 5662 5662 5662 5662 5661 5661
5662 5662 5662 5662 5660 5659 5658 5657 5656 5656 5655 5654 5654 5654 5652 5651 5650 5650 5649 5649 5649 5649 5649 5650 5650 5650 5651 5652 5652 5653 5653 5654 5654 5655 5655 5656 5656 5657 5657 5656 5656 5656 5655 5655
5662 5662 5661 5661 5659 5658 5658 5657 5656 5655 5654 5654 5653 5652 5651 5650 5649 5649 5649 5648 5648 5648 5648 5649 5649 5650 5650 5650 5651 5652 5652 5652 5652 5652 5652 5652 5652 5652 5651 5651 5650 5649 5649 5648
5662 5662 5661 5660 5659 5658 5657 5656 5655 5654 5653 5653 5652 5651 5650 5649 5648 5648 5648 5647 5647 5646 5647 5647 5647 5648 5648 5649 5649 5649 5650 5650 5649 5649 5649 5648 5648 5647 5647 5646 5645 5644 5642 5642
5662 5661 5660 5660 5658 5657 5657 5655 5654 5653 5652 5652 5651 5651 5649 5648 5647 5647 5646 5646 5645 5645 5645 5645 5645 5646 5646 5647 5647 5647 5647 5647 5647 5647 5646 5645 5644 5643 5642 5641 5640 5638 5637 5635
5661 5660 5659 5658 5658 5656 5657 5654 5652 5651 5651 5650 5649 5648 5648 5647 5646 5645 5644 5644 5644 5643 5643 5643 5643 5644 5644 5644 5645 5645 5645 5645 5644 5644 5643 5642 5641 5639 5638 5636 5634 5632 5630 5628
5659 5658 5656 5656 5654 5654 5654 5652 5650 5649 5649 5648 5647 5646 5646 5645 5644 5644 5643 5642 5642 5641 5641 5641 5641 5641 5642 5642 5642 5642 5642 5642 5641 5640 5639 5638 5637 5636 5634 5631 5629 5627 5624 5622
5655 5654 5654 5652 5651 5651 5652 5649 5647 5648 5646 5645 5644 5644 5643 5642 5643 5643 5641 5640 5640 5640 5639 5639 5639 5639 5639 5639 5639 5639 5639 5638 5638 5637 5635 5634 5633 5631 5629 5627 5624 5621 5618 5615
5651 5650 5650 5648 5647 5647 5647 5645 5645 5645 5645 5642 5641 5641 5640 5639 5639 5639 5638 5637 5637 5637 5637 5636 5636 5636 5636 5635 5635 5635 5635 5634 5634 5632 5631 5630 5628 5626 5624 5622 5619 5616 5613 5609
5646 5645 5644 5643 5642 5644 5641 5640 5640 5640 5639 5638 5637 5637 5636 5636 5635 5635 5634 5634 5633 5633 5633 5633 5632 5632 5632 5631 5631 5631 5630 5629 5628 5627 5626 5624 5623 5621 5619 5616 5613 5609 5606 5603
5640 5640 5638 5638 5639 5637 5635 5635 5635 5634 5634 5633 5633 5632 5632 5631 5631 5630 5630 5630 5629 5629 5628 5628 5628 5627 5627 5626 5626 5625 5625 5624 5623 5622 5620 5618 5617 5614 5612 5609 5606 5602 5599 5595
5634 5632 5632 5632 5631 5630 5629 5628 5628 5628 5628 5628 5627 5627 5627 5626 5626 5625 5625 5625 5624 5624 5623 5623 5622 5622 5622 5621 5620 5620 5619 5618 5617 5616 5614 5612 5610 5607 5605 5602 5598 5595 5591 5587
5626 5625 5624 5624 5624 5622 5622 5621 5621 5621 5621 5621 5621 5621 5621 5620 5620 5620 5619 5619 5619 5618 5618 5617 5617 5616 5616 5615 5614 5613 5612 5611 5610 5609 5607 5605 5602 5600 5597 5594 5590 5587 5583 5578
5618 5616 5615 5616 5616 5614 5615 5614 5613 5613 5614 5614 5614 5614 5614 5614 5614 5613 5613 5613 5612 5612 5611 5611 5610 5610 5609 5608 5607 5606 5605 5604 5603 5601 5599 5597 5594 5591 5589 5585 5582 5578 5574 5569
Wind_Speed
12 14 15 15 17 19 19 20 21 21 22 24 25 26 27 29 30 31 32 33 34 34 35 37 37 38 40 42 44 47 49 49 49 49 50 50 50 50 49 48 47 46 45 44
10 11 12 13 14 15 15 16 16 17 18 20 20 22 24 25 26 28 29 29 30 31 32 33 33 34 35 37 40 42 44 46 47 47 48 48 49 49 49 49 49 48 47 46
7 8 9 10 11 12 12 12 12 13 15 17 17 18 20 22 23 24 24 25 25 26 28 29 30 31 32 34 34 35 37 41 43 45 46 47 48 49 48 47 47 47 47 47
5 6 6 8 9 10 10 10 11 11 12 13 14 14 15 17 18 19 20 21 22 22 24 26 28 30 31 32 32 32 34 35 38 40 42 44 45 45 46 46 46 47 47 47
6 5 4 5 7 7 8 9 9 9 10 9 9 10 10 13 15 16 17 18 18 20 21 23 25 26 28 29 29 30 32 32 33 35 38 40 42 43 43 43 43 44 44 45
5 4 4 4 5 4 5 6 6 7 7 7 7 8 8 9 10 11 13 14 16 17 19 20 22 22 24 26 26 27 28 29 30 31 32 34 37 39 40 40 40 41 41 41
5 5 5 5 5 4 4 4 4 4 5 5 6 6 5 6 7 8 10 11 12 14 15 17 16 17 19 22 23 25 26 28 29 29 29 31 33 34 36 36 38 39 40 39
6 5 5 5 5 4 4 4 4 3 3 3 4 4 4 4 5 6 7 9 11 11 11 13 13 14 16 17 19 20 22 24 26 27 27 27 27 29 30 31 32 33 35 36
6 5 5 4 4 3 4 4 4 3 3 2 2 2 3 4 4 4 4 6 9 10 10 10 11 12 13 14 15 16 18 19 20 21 22 23 25 26 27 27 29 30 31 33
6 5 4 4 3 2 3 3 4 3 3 2 1 1 2 3 3 2 2 3 5 7 8 8 10 11 11 11 11 12 13 13 15 17 18 19 21 23 25 26 27 28 29 31
5 5 5 4 3 2 2 3 3 3 3 3 2 0 1 1 1 2 3 3 3 4 6 6 7 8 9 9 9 10 11 11 12 14 15 16 18 19 21 22 25 27 29 30
5 5 4 3 3 2 1 1 2 3 3 3 3 1 1 1 0 1 3 3 3 3 4 5 5 6 8 8 9 9 9 9 11 12 13 16 17 18 19 21 22 25 27 28
4 4 4 3 2 1 1 1 2 2 2 3 3 2 1 2 2 2 2 2 2 3 4 5 6 6 6 7 8 7 8 10 11 13 15 15 16 16 18 20 21 22 24 26
3 2 2 2 2 2 2 2 2 3 2 2 2 2 3 3 2 3 4 4 3 3 4 5 4 5 6 6 6 7 7 9 10 10 12 13 15 16 18 19 20 22 23 25
2 1 2 2 3 3 3 3 3 4 4 4 4 3 3 3 2 3 4 5 5 5 5 5 5 5 6 7 7 8 8 8 8 10 11 14 15 17 18 19 20 22 23 25
3 2 3 4 4 4 4 4 4 4 4 4 5 4 4 4 4 4 4 4 5 5 5 5 6 6 6 6 6 6 7 9 9 10 11 13 15 17 19 20 21 21 23 24
5 5 4 4 5 5 5 5 5 5 5 6 6 5 4 4 5 5 5 5 5 5 5 6 7 7 7 7 7 8 8 8 9 10 11 13 14 16 18 19 21 23 24 25
7 7 7 7 7 7 7 7 6 6 6 7 7 6 6 5 5 5 5 5 5 6 6 7 7 7 7 8 8 9 9 9 10 11 12 13 14 15 16 18 20 21 23 25
9 9 9 10 10 9 9 8 8 8 8 8 7 7 7 7 6 6 5 5 5 6 6 7 7 8 8 9 9 9 9 10 11 12 14 15 16 17 17 19 20 21 22 24
12 12 12 12 12 12 11 11 10 10 9 9 9 8 9 9 9 8 7 6 6 6 7 7 8 9 9 10 11 11 11 12 13 14 15 16 17 17 19 20 22 22 24 25
15 15 15 14 15 15 14 14 13 12 12 11 11 11 11 11 11 11 10 10 9 9 9 10 10 11 11 12 13 13 14 14 15 16 16 17 19 19 20 21 22 23 25 26
17 17 16 17 17 17 18 17 16 15 14 13 13 13 13 13 13 13 13 13 13 13 13 13 13 14 14 14 15 15 16 16 17 18 18 19 20 21 22 23 24 26 27 28
19 19 18 18 18 19 18 18 18 17 16 15 15 15 15 14 14 14 14 15 16 16 16 16 16 16 16 16 17 17 18 18 19 20 20 22 23 24 25 26 27 28 29 30
21 21 21 20 20 21 20 19 19 19 18 17 17 16 17 16 17 17 17 17 17 17 18 18 18 18 18 18 19 19 20 21 21 22 23 24 25 26 27 28 29 30 31 32
24 24 23 22 22 24 23 22 22 21 21 20 19 18 18 18 18 18 19 19 20 20 20 20 20 20 21 21 21 22 22 23 24 24 25 26 28 29 30 30 31 32 33 33
25 26 26 24 25 26 25 25 24 23 23 23 22 21 21 21 20 20 20 21 21 22 22 22 23 23 23 23 23 24 24 25 26 27 28 29 30 31 32 32 32 34 35 35
Wind_Direction
215 220 227 233 236 238 240 242 246 249 247 248 247 247 248 249 247 246 246 247 248 248 247 246 245 243 242 240 239 238 237 238 239 240 240 241 242 242 240 240 241 243 244 246
210 217 224 228 232 235 237 239 242 245 246 247 248 248 248 248 245 245 245 247 247 245 244 244 243 243 242 240 238 237 237 237 238 239 238 239 240 240 240 241 241 242 244 245
209 217 221 224 228 232 233 234 241 245 244 247 249 249 247 246 245 244 245 245 245 243 242 241 240 242 240 237 235 237 238 237 238 239 238 239 239 239 240 240 241 242 244 245
196 210 219 225 228 229 230 234 243 244 245 248 250 250 243 244 241 244 244 243 243 242 240 238 238 238 237 235 237 238 237 237 239 239 238 238 239 239 240 242 243 243 243 245
179 188 199 209 216 223 228 234 240 238 240 243 244 246 237 241 240 242 241 240 240 236 235 235 235 235 234 236 238 239 236 237 239 239 239 238 238 238 239 242 243 243 244 246
158 164 173 180 191 202 214 220 224 226 233 234 235 241 238 238 235 236 237 235 232 231 232 231 232 235 235 236 237 237 235 236 236 237 236 237 237 238 239 240 242 244 246 248
141 151 158 162 168 172 183 185 194 211 217 226 232 236 237 227 230 231 233 235 231 227 229 228 229 233 234 235 235 235 234 234 233 232 234 237 237 238 240 243 245 247 247 249
133 143 155 161 164 168 177 181 191 214 228 217 212 225 217 214 229 232 237 237 229 225 226 227 230 234 232 232 233 235 233 232 230 229 232 235 235 238 241 244 245 247 248 249
121 133 146 160 168 178 187 191 196 216 211 205 209 211 212 207 216 224 237 237 227 221 227 230 232 231 228 226 230 231 227 225 222 226 230 233 236 237 241 245 246 251 253 254
109 112 122 141 154 158 172 179 195 204 218 240 236 239 236 217 222 225 239 235 219 216 221 223 225 221 218 215 213 212 214 216 221 227 232 234 235 238 241 245 249 254 257 258
103 100 108 113 115 137 173 192 207 224 247 270 289 328 242 237 244 217 211 212 210 203 209 213 212 212 209 212 214 216 212 217 222 224 228 233 237 241 245 250 255 258 259 258
99 91 90 98 98 99 129 204 232 244 262 276 292 316 280 275 268 207 198 199 208 206 203 205 203 205 210 214 216 216 217 220 223 226 233 238 242 245 250 256 259 260 260 261
90 84 78 68 52 29 341 272 250 255 267 277 290 311 315 288 247 217 205 208 216 217 212 209 211 214 216 215 217 221 228 236 242 242 243 244 246 253 259 264 264 264 265 266
68 76 46 24 8 351 337 283 262 277 288 291 306 321 320 300 266 246 240 244 243 237 225 215 214 220 223 218 222 229 239 245 248 248 249 252 255 262 268 270 270 271 272 272
18 350 322 336 337 324 312 299 287 289 284 289 296 306 312 302 285 256 254 259 254 245 237 226 230 235 234 232 236 242 250 256 259 260 262 264 265 269 272 276 277 278 277 275
346 327 310 315 320 321 316 298 291 293 296 301 301 298 292 290 279 278 276 269 257 245 243 240 239 243 246 246 251 263 266 265 268 272 276 276 275 277 278 280 281 282 282 281
318 313 307 313 308 308 315 304 295 290 293 294 299 301 294 281 276 273 276 273 257 245 242 247 253 252 254 256 261 264 266 277 279 279 284 287 286 285 284 283 283 285 287 288
298 300 295 296 295 298 300 298 293 289 286 288 287 285 285 280 272 272 269 258 255 250 250 250 253 257 257 259 262 267 270 276 283 284 287 292 295 298 298 295 292 291 293 294
286 290 291 287 285 288 289 289 290 288 284 282 284 279 276 274 271 272 272 261 257 256 256 260 261 262 264 265 268 272 274 278 285 288 290 291 293 295 299 300 299 297 298 299
276 281 285 283 278 282 281 280 281 279 279 275 275 274 272 270 268 269 269 262 259 259 260 264 266 268 268 269 271 274 275 278 283 288 291 292 295 295 298 301 301 300 300 302
272 274 276 277 274 275 276 275 274 271 274 275 274 274 273 272 268 266 266 265 262 261 263 266 267 270 271 273 272 273 275 278 283 286 290 293 295 296 299 302 304 304 304 305
273 273 272 272 273 274 273 272 270 269 269 272 273 272 272 272 268 266 265 266 265 266 267 267 268 271 273 274 273 275 277 280 284 287 290 292 295 297 299 302 304 305 305 306
272 273 272 273 273 272 273 271 268 265 266 266 268 268 270 269 267 266 267 267 267 268 268 269 269 271 272 273 274 276 279 282 285 288 291 294 296 298 300 301 302 304 305 305
272 273 273 272 272 270 268 268 266 264 264 265 266 267 269 268 264 264 267 267 268 268 270 271 270 269 270 272 274 277 280 282 286 289 291 293 295 297 299 300 302 304 305 305
274 273 272 270 269 268 267 266 264 262 261 263 263 265 268 269 267 265 265 266 267 268 270 271 270 270 271 273 275 278 281 283 285 288 291 293 295 296 298 300 301 304 306 306
274 271 270 269 265 265 265 265 264 263 261 261 262 263 265 268 269 268 267 267 267 268 269 270 271 271 272 274 276 278 281 283 285 288 291 294 296 296 297 299 300 303 305 305